Orbital Elements at Epoch 2459000.5 (2020-May-31.0) TDB
Reference: JPL 16 (heliocentric ecliptic J2000)
Element | Value | Uncertainty (1-sigma) | Units |
e | .1693157962329462 | 3.9444e-08 | |
a | 2.355938504337529 | 1.0834e-08 | au |
q | 1.957040900599764 | 9.5306e-08 | au |
i | 7.590992375829376 | 4.9434e-06 | deg |
node | 153.5618003457382 | 3.16e-05 | deg |
peri | 266.2363008704184 | 3.4646e-05 | deg |
M | 256.4237340133894 | 1.5199e-05 | deg |
tp | 2459380.516191857257 (2021-Jun-15.01619186) | 5.6939e-05 | TDB |
period | 1320.822176446268 3.62 | 9.1109e-06 2.494e-08 | d yr |
n | .2725575073009422 | 1.8801e-09 | deg/d |
Q | 2.754836108075294 | 1.2668e-08 | au |
|
| | Orbit Determination Parameters
Additional Information
|